[[{"header":{"parameterUnit":"m.s-1","parameterCategory":1,"la1":30.2991,"la2":30.254,"lo1":-89.0895,"lo2":-89.0444,"dy":0.0017,"dx":0.0017,"nx":28,"ny":28,"refTime":"2025-12-29T09:00:00:Z","depth":0,"parameterNumber":2,"parameterNumberName":"U-component_of_WINDS"},"data":[0,0,0,0,0,0,0,0,0,0,0,0,0,0,0,0,0,0,0,0,0,0,0,0,0,0,0,0,0,0,0,0,0,0,0,0,0,0,0,0,0,0,0,0,0,0,0,0,0,0,0,0,0,0,0,0,0,0,1.0747,1.0747,0,1.0718,1.0718,1.0718,1.0723,1.0724,1.0724,1.0725,1.0692,1.0691,1.069,0,0,0,0,0,0,0,0,0,0,0,0,0,1.0804,1.0803,1.0747,1.0747,1.0746,1.0718,1.0718,1.0718,1.0723,1.0724,1.0725,1.0725,1.0693,1.0691,1.069,0,0,0,0,0,0,0,0,0,0,0,0,0,1.0778,1.0803,1.0747,1.0746,1.0745,1.0718,1.0718,1.0717,1.0723,1.0724,1.0725,1.0725,1.0693,1.0691,1.0689,1.0661,0,0,1.0683,1.0682,0,0,0,0,0,0,0,0,1.0779,1.0776,1.0746,1.0746,1.0745,1.0725,1.0726,1.0698,1.0723,1.0731,1.0725,1.0726,1.0702,1.07,1.0692,1.0659,1.0658,1.0683,1.0682,1.0681,1.068,0,0,0,0,0,0,0,1.0781,1.0777,1.0736,1.0746,1.0745,1.0746,1.0743,1.0721,1.0713,1.0731,1.0731,1.0728,1.0702,1.0694,1.0692,1.0657,1.0683,1.0681,1.068,1.0679,1.0599,1.0599,0,0,0,0,0,0,1.0784,1.0779,1.0736,1.0735,1.0765,1.0744,1.0741,1.0731,1.0713,1.0711,1.0727,1.0728,1.0698,1.0694,1.0691,1.0656,1.0681,1.0679,1.0678,1.06,1.0599,1.0598,0,0,0,0,0,0,1.0785,1.078,1.0738,1.0757,1.0751,1.0742,1.0731,1.073,1.0722,1.071,1.0709,1.0721,1.0698,1.0693,1.0668,1.0655,1.0678,1.0676,1.0601,1.06,1.0599,1.0586,0,0,0,0,0,0,1.0787,1.078,1.077,1.0756,1.075,1.0716,1.073,1.0729,1.0719,1.072,1.0704,1.0702,1.0698,1.0671,1.0666,1.0652,1.0675,1.0603,1.0601,1.0599,1.0587,1.0584,1.0582,0,0,0,0,0,1.0789,1.0767,1.0769,1.0764,1.0737,1.0716,1.0712,1.0709,1.0718,1.0707,1.0699,1.0702,1.0658,1.0669,1.0663,1.0648,1.0603,1.0601,1.0599,1.0589,1.0585,1.0582,0,0,0,0,0,0,1.0777,1.0765,1.0768,1.0741,1.0729,1.0717,1.0703,1.0705,1.069,1.0692,1.0688,1.0684,1.0659,1.0651,1.0664,1.062,1.0632,1.0628,1.0625,1.0622,1.0619,1.062,1.0673,0,0,0,0,0,1.0772,1.0757,1.0746,1.0723,1.0718,1.0711,1.0702,1.0701,1.0688,1.0683,1.0674,1.0661,1.0644,1.0633,1.0616,1.0587,1.0583,1.0574,1.0571,1.0569,1.0566,1.0549,1.0545,1.0592,1.0592,1.0592,0,0,1.076,1.0752,1.0742,1.0721,1.0712,1.0695,1.0707,1.0689,1.0676,1.068,1.0656,1.0649,1.0634,1.0607,1.0594,1.06,1.0552,1.0566,1.0565,1.0562,1.0547,1.0542,1.0538,1.059,1.0591,1.0591,0,0,1.073,1.0722,1.0702,1.0694,1.068,1.0676,1.0672,1.0659,1.0655,1.0631,1.0634,1.0618,1.0589,1.0579,1.0569,1.0537,1.0539,1.0532,1.0515,1.05,1.0496,1.0493,1.048,1.0476,1.0529,1.0529,1.0529,0,1.0716,1.0692,1.0691,1.0673,1.0664,1.0669,1.0648,1.0639,1.0621,1.0614,1.0621,1.0585,1.0575,1.0545,1.0538,1.053,1.0524,1.0533,1.0497,1.0494,1.049,1.0478,1.0474,1.0528,1.0528,1.0528,1.0528,0,1.0676,1.0659,1.0644,1.0628,1.0617,1.0597,1.0594,1.0583,1.0583,1.0578,1.0554,1.0543,1.0525,1.0518,1.0518,1.0488,1.0492,1.0498,1.0509,1.0485,1.0474,1.0469,1.0527,1.0527,1.0527,1.0527,0,0,1.0635,1.062,1.0615,1.0607,1.0594,1.058,1.0561,1.0545,1.0535,1.0523,1.0506,1.0482,1.0488,1.0478,1.0476,1.0463,1.0437,1.047,1.047,1.0464,1.0403,1.0398,1.0392,1.0439,1.0438,1.0438,1.0404,0,1.0603,1.057,1.057,1.0539,1.0523,1.0528,1.0512,1.0501,1.0497,1.0482,1.0477,1.046,1.0469,1.0463,1.045,1.0443,1.0424,1.0446,1.0422,1.0421,1.0424,1.0387,1.0381,1.0349,1.04,1.0399,1.0398,0,1.056,1.0548,1.0516,1.0505,1.0499,1.0484,1.0468,1.0455,1.0443,1.0441,1.043,1.0431,1.0411,1.0425,1.0397,1.0411,1.0402,1.0397,1.0396,1.0392,1.0407,1.0381,1.0339,1.0334,1.0392,1.0392,1.0393,0,1.0533,1.0508,1.0486,1.048,1.0467,1.0456,1.045,1.044,1.043,1.0417,1.041,1.0394,1.0385,1.0373,1.037,1.038,1.0342,1.0355,1.0338,1.0338,1.0328,1.0329,1.0283,1.0325,1.0325,1.0325,1.0325,0,1.0496,1.0476,1.0474,1.0459,1.0437,1.0437,1.0415,1.041,1.0401,1.0385,1.0389,1.0375,1.0372,1.0357,1.0354,1.0331,1.0327,1.0324,1.0323,1.0323,1.0323,1.0316,1.0317,1.0324,1.0324,1.0324,1.0325,0,1.046,1.0458,1.0434,1.0425,1.0422,1.0406,1.0398,1.0384,1.0381,1.0361,1.0357,1.0351,1.0334,1.033,1.0309,1.0307,1.0279,1.0281,1.0283,1.0283,1.0266,1.0267,1.0213,1.0206,1.0253,1.0253,1.0252,0,1.0436,1.0421,1.0411,1.0401,1.0395,1.038,1.037,1.037,1.0359,1.0346,1.0334,1.0317,1.0303,1.0275,1.0268,1.0252,1.0253,1.0236,1.0251,1.0251,1.0252,1.0252,1.025,1.0232,1.0231,1.0231,1.0231,0,1.0393,1.0393,1.0379,1.0366,1.0354,1.0343,1.0333,1.0324,1.0323,1.0311,1.0294,1.0283,1.0263,1.0245,1.023,1.0223,1.0226,1.0226,1.0221,1.022,1.0221,1.0219,1.0274,1.0227,1.0227,1.0228,1.0228,1.0228,1.0361,1.0348,1.0339,1.0324,1.0316,1.0307,1.0293,1.0289,1.0275,1.0259,1.026,1.024,1.023,1.0209,1.0202,1.0186,1.0192,1.0185,1.0183,1.0181,1.0178,1.0225,1.0184,1.0184,1.0184,1.0184,1.0184,0,1.0317,1.0312,1.0298,1.0284,1.0272,1.0278,1.0267,1.0256,1.024,1.023,1.0217,1.0197,1.0181,1.0174,1.0158,1.0147,1.0148,1.0143,1.0143,1.0141,1.0175,1.018,1.0142,1.0142,1.0142,1.0142,1.0142,1.0142,1.0293,1.0271,1.027,1.0244,1.0239,1.0221,1.0214,1.0205,1.0197,1.0175,1.0162,1.0158,1.015,1.0133,1.0119,1.0117,1.011,1.0104,1.0103,1.0134,1.0139,1.0143,1.0147,1.0103,1.0103,1.007,1.007,1.0069]},{"header":{"parameterUnit":"m.s-1","parameterCategory":1,"la1":30.2991,"la2":30.254,"lo1":-89.0895,"lo2":-89.0444,"dy":0.0017,"dx":0.0017,"nx":28,"ny":28,"refTime":"2025-12-29T09:00:00:Z","depth":0,"parameterNumber":3,"parameterNumberName":"V-component_of_WINDS"},"data":[0,0,0,0,0,0,0,0,0,0,0,0,0,0,0,0,0,0,0,0,0,0,0,0,0,0,0,0,0,0,0,0,0,0,0,0,0,0,0,0,0,0,0,0,0,0,0,0,0,0,0,0,0,0,0,0,0,0,-5.1234,-5.1236,0,-5.1408,-5.141,-5.1411,-5.1352,-5.1349,-5.1345,-5.1341,-5.1516,-5.1523,-5.1532,0,0,0,0,0,0,0,0,0,0,0,0,0,-5.0846,-5.0853,-5.1233,-5.1236,-5.1238,-5.1407,-5.141,-5.1412,-5.1353,-5.1348,-5.1344,-5.1339,-5.1513,-5.1522,-5.1532,0,0,0,0,0,0,0,0,0,0,0,0,0,-5.1016,-5.0856,-5.1233,-5.1229,-5.123,-5.1407,-5.141,-5.1413,-5.1354,-5.1348,-5.1343,-5.1337,-5.151,-5.1522,-5.1534,-5.1723,0,0,-5.1571,-5.1576,0,0,0,0,0,0,0,0,-5.1007,-5.1031,-5.1227,-5.123,-5.1231,-5.1353,-5.1337,-5.1517,-5.1355,-5.1307,-5.1341,-5.1335,-5.1466,-5.1481,-5.1526,-5.1732,-5.1739,-5.1572,-5.158,-5.1585,-5.1588,0,0,0,0,0,0,0,-5.0995,-5.1023,-5.1302,-5.123,-5.1233,-5.1217,-5.1235,-5.1371,-5.1416,-5.1311,-5.1307,-5.1328,-5.1466,-5.1515,-5.153,-5.1742,-5.1572,-5.1583,-5.159,-5.1595,-5.2109,-5.2115,0,0,0,0,0,0,-5.0983,-5.1013,-5.1297,-5.1307,-5.1103,-5.1229,-5.1249,-5.1319,-5.1414,-5.1423,-5.1333,-5.1325,-5.1496,-5.1516,-5.1536,-5.1763,-5.1585,-5.1596,-5.1603,-5.2103,-5.2111,-5.2118,0,0,0,0,0,0,-5.0975,-5.1009,-5.129,-5.116,-5.1194,-5.1241,-5.1321,-5.1326,-5.1375,-5.1431,-5.1439,-5.1375,-5.1493,-5.1518,-5.1677,-5.1768,-5.1602,-5.1613,-5.2096,-5.2106,-5.2114,-5.222,0,0,0,0,0,0,-5.0964,-5.1006,-5.108,-5.1162,-5.1201,-5.143,-5.1327,-5.1333,-5.1396,-5.1388,-5.1473,-5.1481,-5.149,-5.1659,-5.1689,-5.1782,-5.1623,-5.2088,-5.21,-5.2111,-5.2209,-5.2232,-5.2252,0,0,0,0,0,-5.095,-5.1102,-5.1084,-5.1118,-5.1295,-5.1435,-5.1458,-5.1466,-5.1404,-5.1478,-5.1514,-5.1479,-5.1754,-5.1676,-5.1709,-5.1807,-5.2082,-5.2097,-5.211,-5.2199,-5.2228,-5.2252,0,0,0,0,0,0,-5.1029,-5.1113,-5.1093,-5.1277,-5.135,-5.1425,-5.1519,-5.1496,-5.1587,-5.1575,-5.158,-5.1599,-5.1762,-5.18,-5.1712,-5.1995,-5.1908,-5.193,-5.1964,-5.1992,-5.2013,-5.2,-5.1633,0,0,0,0,0,-5.1068,-5.1177,-5.1243,-5.1399,-5.1436,-5.1472,-5.1533,-5.1533,-5.1608,-5.1638,-5.1686,-5.1759,-5.1861,-5.1928,-5.2026,-5.2214,-5.2231,-5.2298,-5.2319,-5.2337,-5.2355,-5.2456,-5.2486,-5.2164,-5.2164,-5.2164,0,0,-5.1149,-5.1209,-5.1277,-5.1416,-5.1472,-5.1583,-5.1498,-5.1619,-5.17,-5.1656,-5.1809,-5.1846,-5.1928,-5.2101,-5.218,-5.2138,-5.2448,-5.2355,-5.2369,-5.2378,-5.2474,-5.2504,-5.2531,-5.2174,-5.2172,-5.217,0,0,-5.1354,-5.141,-5.1546,-5.1604,-5.169,-5.1712,-5.1745,-5.1824,-5.1847,-5.2001,-5.197,-5.2066,-5.2243,-5.2302,-5.2355,-5.2581,-5.2551,-5.2612,-5.2726,-5.2824,-5.2849,-5.2871,-5.2951,-5.298,-5.263,-5.2631,-5.2631,0,-5.1444,-5.1611,-5.1618,-5.1742,-5.1803,-5.1769,-5.1904,-5.196,-5.2074,-5.2116,-5.2068,-5.2289,-5.2341,-5.2527,-5.2582,-5.2627,-5.2663,-5.2603,-5.2845,-5.2868,-5.2889,-5.2965,-5.2995,-5.2638,-5.2637,-5.2636,-5.2635,0,-5.1717,-5.1833,-5.1931,-5.2043,-5.2116,-5.2245,-5.2269,-5.2342,-5.2335,-5.2362,-5.2517,-5.2579,-5.2688,-5.2732,-5.2727,-5.2918,-5.2889,-5.2843,-5.2756,-5.2926,-5.2998,-5.3027,-5.2647,-5.2645,-5.2643,-5.2641,0,0,-5.1977,-5.209,-5.2126,-5.2176,-5.2268,-5.2357,-5.2484,-5.2591,-5.2653,-5.2732,-5.2837,-5.2987,-5.2945,-5.3005,-5.3006,-5.3092,-5.3266,-5.3035,-5.3037,-5.3075,-5.3478,-5.3512,-5.3546,-5.3246,-5.3252,-5.3256,-5.3471,0,-5.2189,-5.2413,-5.2422,-5.2626,-5.2733,-5.27,-5.281,-5.2878,-5.2906,-5.2999,-5.3029,-5.3135,-5.3072,-5.3108,-5.3192,-5.3227,-5.3346,-5.3211,-5.3343,-5.3348,-5.3324,-5.3583,-5.362,-5.382,-5.3499,-5.3504,-5.3508,0,-5.2467,-5.2555,-5.277,-5.2846,-5.2891,-5.299,-5.3088,-5.3178,-5.3253,-5.3267,-5.3335,-5.3322,-5.345,-5.3358,-5.3533,-5.3441,-5.3495,-5.352,-5.3528,-5.3541,-5.3438,-5.3602,-5.3884,-5.3914,-5.3552,-5.3548,-5.3545,0,-5.2634,-5.2807,-5.2957,-5.3001,-5.3093,-5.3163,-5.3205,-5.3275,-5.3338,-5.3424,-5.3465,-5.3564,-5.3618,-5.3694,-5.3707,-5.364,-5.3883,-5.3793,-5.3897,-5.3896,-5.3949,-5.3946,-5.4243,-5.3985,-5.3984,-5.3984,-5.3983,0,-5.287,-5.3002,-5.3034,-5.3126,-5.3273,-5.3281,-5.3426,-5.3462,-5.3524,-5.3621,-5.3599,-5.3691,-5.3704,-5.3798,-5.3809,-5.3952,-5.3977,-5.399,-5.3992,-5.3993,-5.3991,-5.4028,-5.4014,-5.3992,-5.399,-5.3989,-5.3987,0,-5.3082,-5.3109,-5.327,-5.3345,-5.3366,-5.3471,-5.3534,-5.3621,-5.3646,-5.377,-5.38,-5.3839,-5.3949,-5.397,-5.41,-5.4107,-5.4277,-5.4264,-5.4252,-5.425,-5.4353,-5.4343,-5.4685,-5.473,-5.4442,-5.4445,-5.4447,0,-5.323,-5.3332,-5.3417,-5.3481,-5.3526,-5.363,-5.3695,-5.3706,-5.3774,-5.3867,-5.3943,-5.4051,-5.4138,-5.4315,-5.4353,-5.4452,-5.4441,-5.4554,-5.4456,-5.4453,-5.4442,-5.4436,-5.4446,-5.4573,-5.4576,-5.4579,-5.4581,0,-5.3491,-5.3499,-5.3594,-5.3694,-5.3772,-5.3851,-5.3926,-5.3979,-5.4,-5.4077,-5.419,-5.4258,-5.439,-5.4497,-5.4595,-5.4635,-5.4612,-5.4611,-5.4641,-5.4642,-5.4631,-5.4638,-5.4303,-5.4604,-5.4601,-5.46,-5.4598,-5.4598,-5.3676,-5.3764,-5.3837,-5.3944,-5.4001,-5.4071,-5.4157,-5.4193,-5.4287,-5.4397,-5.4397,-5.452,-5.459,-5.472,-5.4767,-5.4862,-5.4826,-5.4869,-5.4879,-5.489,-5.4899,-5.4616,-5.488,-5.4879,-5.4879,-5.4878,-5.4878,0,-5.3935,-5.398,-5.4078,-5.4183,-5.4267,-5.4238,-5.4318,-5.4389,-5.4498,-5.4567,-5.4653,-5.4781,-5.4884,-5.4931,-5.5032,-5.5099,-5.5091,-5.5126,-5.5121,-5.513,-5.4926,-5.489,-5.5131,-5.5131,-5.5131,-5.5131,-5.5131,-5.513,-5.4079,-5.4227,-5.4243,-5.4417,-5.4461,-5.4583,-5.4631,-5.4695,-5.475,-5.4895,-5.4981,-5.5011,-5.507,-5.5175,-5.5268,-5.5278,-5.5316,-5.5356,-5.5362,-5.517,-5.5145,-5.512,-5.5087,-5.5365,-5.5365,-5.5558,-5.556,-5.5562]}]]